Time,TemperatureF,DewpointF,PressureIn,WindDirection,WindDirectionDegrees,WindSpeedMPH,WindSpeedGustMPH,Humidity,HourlyPrecipIn,Conditions,Clouds,dailyrainin,SoftwareType,DateUTC
2013-02-09 00:00:00,28.6,26.8,29.90,NNW,338,1.0,2.0,93,0.00,,,0.00,Weather View 32 v70,2013-02-09 09:00:00,
2013-02-09 00:05:00,28.6,26.8,29.89,NNW,338,1.0,2.0,93,0.00,,,0.00,Weather View 32 v70,2013-02-09 09:05:00,
2013-02-09 00:10:00,28.6,26.8,29.89,NNW,338,1.0,2.0,93,0.00,,,0.00,Weather View 32 v70,2013-02-09 09:10:00,
2013-02-09 00:15:00,28.6,26.8,29.89,NNW,338,1.0,2.0,93,0.00,,,0.00,Weather View 32 v70,2013-02-09 09:15:00,
2013-02-09 00:20:00,28.6,26.8,29.89,NNW,338,1.0,1.0,93,0.00,,,0.00,Weather View 32 v70,2013-02-09 09:20:00,
2013-02-09 00:25:00,28.6,26.8,29.89,NNW,338,1.0,1.0,93,0.00,,,0.00,Weather View 32 v70,2013-02-09 09:25:00,
2013-02-09 00:30:00,28.6,26.8,29.89,NNW,338,1.0,1.0,93,0.00,,,0.00,Weather View 32 v70,2013-02-09 09:30:00,
2013-02-09 00:36:00,28.9,27.2,29.89,NNW,338,1.0,1.0,93,0.00,,,0.00,Weather View 32 v70,2013-02-09 09:36:00,
2013-02-09 00:41:00,28.9,27.2,29.89,NNW,338,1.0,1.0,93,0.00,,,0.00,Weather View 32 v70,2013-02-09 09:41:00,
2013-02-09 00:46:00,28.9,27.2,29.88,NNW,338,1.0,1.0,93,0.00,,,0.00,Weather View 32 v70,2013-02-09 09:46:00,
2013-02-09 00:51:00,28.9,27.2,29.88,NNW,338,1.0,1.0,93,0.00,,,0.00,Weather View 32 v70,2013-02-09 09:51:00,
2013-02-09 00:56:00,28.8,27.0,29.88,NNW,338,1.0,1.0,93,0.00,,,0.00,Weather View 32 v70,2013-02-09 09:56:00,
2013-02-09 01:01:00,28.9,27.2,29.88,NNW,338,1.0,1.0,93,0.00,,,0.00,Weather View 32 v70,2013-02-09 10:01:00,
2013-02-09 01:06:00,28.9,27.2,29.87,NNW,338,1.0,1.0,93,0.00,,,0.00,Weather View 32 v70,2013-02-09 10:06:00,
2013-02-09 01:11:00,28.9,27.2,29.87,NNW,338,1.0,1.0,93,0.00,,,0.00,Weather View 32 v70,2013-02-09 10:11:00,
2013-02-09 01:16:00,28.9,27.2,29.87,NNW,338,1.0,1.0,93,0.00,,,0.00,Weather View 32 v70,2013-02-09 10:16:00,
2013-02-09 01:21:00,28.9,26.9,29.87,NNW,338,1.0,1.0,92,0.00,,,0.00,Weather View 32 v70,2013-02-09 10:21:00,
2013-02-09 01:26:00,28.9,26.9,29.86,NNW,338,1.0,1.0,92,0.00,,,0.00,Weather View 32 v70,2013-02-09 10:26:00,
2013-02-09 01:31:00,28.9,26.9,29.86,NNW,338,1.0,1.0,92,0.00,,,0.00,Weather View 32 v70,2013-02-09 10:31:00,
2013-02-09 01:36:00,28.9,26.9,29.86,NNW,338,1.0,1.0,92,0.00,,,0.00,Weather View 32 v70,2013-02-09 10:36:00,
2013-02-09 01:41:00,28.9,26.9,29.86,NNW,338,1.0,1.0,92,0.00,,,0.00,Weather View 32 v70,2013-02-09 10:41:00,
2013-02-09 01:46:00,28.9,26.9,29.84,NNW,338,2.0,2.0,92,0.00,,,0.00,Weather View 32 v70,2013-02-09 10:46:00,
2013-02-09 01:51:00,28.9,26.9,29.84,NNW,338,2.0,2.0,92,0.00,,,0.00,Weather View 32 v70,2013-02-09 10:51:00,
2013-02-09 01:56:00,29.3,27.3,29.84,NNW,338,2.0,2.0,92,0.00,,,0.00,Weather View 32 v70,2013-02-09 10:56:00,
2013-02-09 02:01:00,29.3,27.3,29.84,NNW,338,2.0,2.0,92,0.00,,,0.00,Weather View 32 v70,2013-02-09 11:01:00,
2013-02-09 02:06:00,29.1,27.1,29.81,NNW,338,2.0,2.0,92,0.00,,,0.00,Weather View 32 v70,2013-02-09 11:06:00,
2013-02-09 02:11:00,29.1,27.1,29.81,NNW,338,2.0,2.0,92,0.00,,,0.00,Weather View 32 v70,2013-02-09 11:11:00,
2013-02-09 02:16:00,29.1,27.1,29.81,NNW,338,2.0,2.0,92,0.00,,,0.00,Weather View 32 v70,2013-02-09 11:16:00,
2013-02-09 02:21:00,29.1,27.1,29.81,NNW,338,2.0,2.0,92,0.00,,,0.00,Weather View 32 v70,2013-02-09 11:21:00,
2013-02-09 02:26:00,29.3,27.3,29.81,NNW,338,2.0,2.0,92,0.00,,,0.00,Weather View 32 v70,2013-02-09 11:26:00,
2013-02-09 02:31:00,29.3,27.3,29.81,NNW,338,2.0,2.0,92,0.00,,,0.00,Weather View 32 v70,2013-02-09 11:31:00,
2013-02-09 02:36:00,29.3,27.3,29.81,NNW,338,2.0,2.0,92,0.00,,,0.00,Weather View 32 v70,2013-02-09 11:36:00,
2013-02-09 02:41:00,29.3,27.3,29.81,NNW,338,2.0,2.0,92,0.00,,,0.00,Weather View 32 v70,2013-02-09 11:41:00,
2013-02-09 02:46:00,29.3,27.3,29.79,NNW,338,2.0,2.0,92,0.00,,,0.00,Weather View 32 v70,2013-02-09 11:46:00,
2013-02-09 02:51:00,29.7,27.6,29.79,NNW,338,2.0,2.0,92,0.00,,,0.00,Weather View 32 v70,2013-02-09 11:51:00,
2013-02-09 02:56:00,29.7,27.6,29.79,NNW,338,2.0,2.0,92,0.00,,,0.00,Weather View 32 v70,2013-02-09 11:56:00,
2013-02-09 03:01:00,29.7,27.6,29.79,NNW,338,2.0,2.0,92,0.00,,,0.00,Weather View 32 v70,2013-02-09 12:01:00,
2013-02-09 03:06:00,29.7,27.6,29.77,NNW,338,2.0,2.0,92,0.00,,,0.00,Weather View 32 v70,2013-02-09 12:06:00,
2013-02-09 03:11:00,29.7,27.6,29.77,NNW,338,2.0,2.0,92,0.00,,,0.00,Weather View 32 v70,2013-02-09 12:11:00,
2013-02-09 03:16:00,30.0,28.0,29.77,NNW,338,3.0,3.0,92,0.00,,,0.00,Weather View 32 v70,2013-02-09 12:16:00,
2013-02-09 03:21:00,30.0,28.0,29.77,NNW,338,3.0,3.0,92,0.00,,,0.00,Weather View 32 v70,2013-02-09 12:21:00,
2013-02-09 03:26:00,30.0,28.0,29.76,NNW,338,3.0,3.0,92,0.00,,,0.00,Weather View 32 v70,2013-02-09 12:26:00,
2013-02-09 03:31:00,30.0,28.0,29.76,NNW,338,3.0,3.0,92,0.00,,,0.00,Weather View 32 v70,2013-02-09 12:31:00,
2013-02-09 03:36:00,29.8,27.8,29.76,NNW,338,3.0,3.0,92,0.00,,,0.00,Weather View 32 v70,2013-02-09 12:36:00,
2013-02-09 03:41:00,29.8,27.8,29.76,NNW,338,3.0,3.0,92,0.00,,,0.00,Weather View 32 v70,2013-02-09 12:41:00,
2013-02-09 03:46:00,29.8,27.8,29.76,NNW,338,2.0,3.0,92,0.00,,,0.00,Weather View 32 v70,2013-02-09 12:46:00,
2013-02-09 03:51:00,30.0,28.0,29.76,NNW,338,2.0,3.0,92,0.00,,,0.00,Weather View 32 v70,2013-02-09 12:51:00,
2013-02-09 03:56:00,29.7,27.6,29.76,NNW,338,2.0,3.0,92,0.00,,,0.00,Weather View 32 v70,2013-02-09 12:56:00,
2013-02-09 04:01:00,29.7,27.6,29.76,NNW,338,2.0,3.0,92,0.00,,,0.00,Weather View 32 v70,2013-02-09 13:01:00,
2013-02-09 04:06:00,29.7,27.6,29.74,NNW,338,2.0,3.0,92,0.00,,,0.00,Weather View 32 v70,2013-02-09 13:06:00,
2013-02-09 04:11:00,29.7,27.6,29.74,NNW,338,3.0,3.0,92,0.00,,,0.00,Weather View 32 v70,2013-02-09 13:11:00,
2013-02-09 04:16:00,29.7,27.6,29.74,NNW,338,3.0,3.0,92,0.00,,,0.00,Weather View 32 v70,2013-02-09 13:16:00,
2013-02-09 04:21:00,29.7,27.6,29.74,NNW,338,3.0,3.0,92,0.00,,,0.00,Weather View 32 v70,2013-02-09 13:21:00,
2013-02-09 04:26:00,29.8,27.8,29.73,NNW,338,2.0,3.0,92,0.00,,,0.00,Weather View 32 v70,2013-02-09 13:26:00,
2013-02-09 04:31:00,29.8,27.8,29.73,NNW,338,2.0,3.0,92,0.00,,,0.00,Weather View 32 v70,2013-02-09 13:31:00,
2013-02-09 04:36:00,30.0,28.0,29.73,NNW,338,3.0,3.0,92,0.00,,,0.00,Weather View 32 v70,2013-02-09 13:36:00,
2013-02-09 04:41:00,30.4,28.3,29.73,NNW,338,2.0,3.0,92,0.00,,,0.00,Weather View 32 v70,2013-02-09 13:41:00,
2013-02-09 04:46:00,30.4,28.3,29.73,NNW,338,2.0,3.0,92,0.00,,,0.00,Weather View 32 v70,2013-02-09 13:46:00,
2013-02-09 04:51:00,30.4,28.3,29.73,NNW,338,2.0,3.0,92,0.00,,,0.00,Weather View 32 v70,2013-02-09 13:51:00,
2013-02-09 04:56:00,30.2,28.2,29.73,NNW,338,2.0,3.0,92,0.00,,,0.00,Weather View 32 v70,2013-02-09 13:56:00,
2013-02-09 05:01:00,30.4,28.3,29.73,NNW,338,2.0,3.0,92,0.00,,,0.00,Weather View 32 v70,2013-02-09 14:01:00,
2013-02-09 05:06:00,30.2,28.2,29.71,NNW,338,2.0,3.0,92,0.00,,,0.00,Weather View 32 v70,2013-02-09 14:06:00,
2013-02-09 05:11:00,30.4,28.3,29.71,NNW,338,2.0,3.0,92,0.00,,,0.00,Weather View 32 v70,2013-02-09 14:11:00,
2013-02-09 05:16:00,30.4,28.3,29.71,NNW,338,2.0,3.0,92,0.00,,,0.00,Weather View 32 v70,2013-02-09 14:16:00,
2013-02-09 05:21:00,30.4,28.3,29.71,NNW,338,2.0,3.0,92,0.00,,,0.00,Weather View 32 v70,2013-02-09 14:21:00,
2013-02-09 05:26:00,30.4,28.3,29.70,NNW,338,2.0,3.0,92,0.00,,,0.00,Weather View 32 v70,2013-02-09 14:26:00,
2013-02-09 05:31:00,30.4,28.3,29.70,NNW,338,2.0,3.0,92,0.00,,,0.00,Weather View 32 v70,2013-02-09 14:31:00,
2013-02-09 05:36:00,30.7,28.7,29.70,NNW,338,3.0,3.0,92,0.00,,,0.00,Weather View 32 v70,2013-02-09 14:36:00,
2013-02-09 05:41:00,30.7,28.7,29.70,NNW,338,3.0,3.0,92,0.00,,,0.00,Weather View 32 v70,2013-02-09 14:41:00,
2013-02-09 05:46:00,30.7,28.7,29.70,NNW,338,3.0,3.0,92,0.00,,,0.00,Weather View 32 v70,2013-02-09 14:46:00,
2013-02-09 05:51:00,30.7,28.7,29.70,NNW,338,2.0,3.0,92,0.00,,,0.00,Weather View 32 v70,2013-02-09 14:51:00,
2013-02-09 05:56:00,31.1,29.0,29.70,NNW,338,3.0,3.0,92,0.00,,,0.00,Weather View 32 v70,2013-02-09 14:56:00,
2013-02-09 06:01:00,31.1,29.0,29.70,NNW,338,4.0,4.0,92,0.00,,,0.00,Weather View 32 v70,2013-02-09 15:01:00,
2013-02-09 06:06:00,31.1,29.0,29.68,NNW,338,4.0,4.0,92,0.00,,,0.00,Weather View 32 v70,2013-02-09 15:06:00,
2013-02-09 06:11:00,31.1,29.0,29.68,NNW,338,4.0,4.0,92,0.00,,,0.00,Weather View 32 v70,2013-02-09 15:11:00,
2013-02-09 06:16:00,30.7,28.7,29.68,NNW,338,1.0,4.0,92,0.00,,,0.00,Weather View 32 v70,2013-02-09 15:16:00,
2013-02-09 06:21:00,30.7,28.7,29.68,NNW,338,1.0,4.0,92,0.00,,,0.00,Weather View 32 v70,2013-02-09 15:21:00,
2013-02-09 06:26:00,30.7,28.7,29.67,NNW,338,1.0,4.0,92,0.00,,,0.00,Weather View 32 v70,2013-02-09 15:26:00,
2013-02-09 06:31:00,30.6,28.5,29.67,NNW,338,1.0,4.0,92,0.00,,,0.00,Weather View 32 v70,2013-02-09 15:31:00,
2013-02-09 06:36:00,30.6,28.5,29.67,NNW,338,1.0,4.0,92,0.00,,,0.00,Weather View 32 v70,2013-02-09 15:36:00,
2013-02-09 06:41:00,30.6,28.5,29.67,NNW,338,1.0,4.0,92,0.00,,,0.00,Weather View 32 v70,2013-02-09 15:41:00,
2013-02-09 06:46:00,30.7,28.7,29.66,NNW,338,1.0,4.0,92,0.00,,,0.00,Weather View 32 v70,2013-02-09 15:46:00,
2013-02-09 06:51:00,30.7,28.7,29.66,NNW,338,2.0,4.0,92,0.00,,,0.00,Weather View 32 v70,2013-02-09 15:51:00,
2013-02-09 06:56:00,31.1,29.0,29.66,NNW,338,2.0,4.0,92,0.00,,,0.00,Weather View 32 v70,2013-02-09 15:56:00,
2013-02-09 07:01:00,31.1,29.0,29.66,NNW,338,2.0,4.0,92,0.00,,,0.00,Weather View 32 v70,2013-02-09 16:01:00,
2013-02-09 07:06:00,31.1,29.0,29.64,NNW,338,2.0,4.0,92,0.00,,,0.00,Weather View 32 v70,2013-02-09 16:06:00,
2013-02-09 07:11:00,31.1,29.0,29.64,NNW,338,2.0,4.0,92,0.00,,,0.00,Weather View 32 v70,2013-02-09 16:11:00,
2013-02-09 07:16:00,31.1,29.0,29.64,NNW,338,1.0,2.0,92,0.00,,,0.00,Weather View 32 v70,2013-02-09 16:16:00,
2013-02-09 07:21:00,31.1,29.0,29.64,NNW,338,2.0,2.0,92,0.00,,,0.00,Weather View 32 v70,2013-02-09 16:21:00,
2013-02-09 07:26:00,31.1,29.0,29.63,NNW,338,2.0,2.0,92,0.00,,,0.00,Weather View 32 v70,2013-02-09 16:26:00,
2013-02-09 07:31:00,31.1,29.0,29.63,NNW,338,2.0,2.0,92,0.00,,,0.00,Weather View 32 v70,2013-02-09 16:31:00,
2013-02-09 07:36:00,31.1,29.0,29.63,NNW,338,2.0,2.0,92,0.00,,,0.00,Weather View 32 v70,2013-02-09 16:36:00,
2013-02-09 07:41:00,31.5,29.4,29.63,NNW,338,2.0,2.0,92,0.00,,,0.00,Weather View 32 v70,2013-02-09 16:41:00,
2013-02-09 07:46:00,31.5,29.4,29.62,NNW,338,2.0,2.0,92,0.00,,,0.00,Weather View 32 v70,2013-02-09 16:46:00,
2013-02-09 07:51:00,31.8,30.0,29.62,NNW,338,2.0,2.0,93,0.00,,,0.00,Weather View 32 v70,2013-02-09 16:51:00,
2013-02-09 07:56:00,31.8,30.0,29.62,NNW,338,2.0,2.0,93,0.00,,,0.00,Weather View 32 v70,2013-02-09 16:56:00,
2013-02-09 08:01:00,31.8,30.0,29.62,NNW,338,2.0,2.0,93,0.00,,,0.00,Weather View 32 v70,2013-02-09 17:01:00,
2013-02-09 08:06:00,32.5,30.7,29.61,NNW,338,3.0,3.0,93,0.00,,,0.00,Weather View 32 v70,2013-02-09 17:06:00,
2013-02-09 08:11:00,32.9,30.8,29.61,NNW,338,3.0,3.0,92,0.00,,,0.00,Weather View 32 v70,2013-02-09 17:11:00,
2013-02-09 08:17:00,32.7,30.7,29.61,NNW,338,3.0,3.0,92,0.00,,,0.00,Weather View 32 v70,2013-02-09 17:17:00,
2013-02-09 08:22:00,32.7,30.7,29.61,NNW,338,2.0,3.0,92,0.00,,,0.00,Weather View 32 v70,2013-02-09 17:22:00,
2013-02-09 08:27:00,32.7,30.7,29.60,NNW,338,2.0,3.0,92,0.00,,,0.00,Weather View 32 v70,2013-02-09 17:27:00,
2013-02-09 08:31:00,33.3,31.2,29.60,NNW,338,2.0,3.0,92,0.00,,,0.00,Weather View 32 v70,2013-02-09 17:31:00,
2013-02-09 08:36:00,33.6,31.5,29.60,NNW,338,2.0,3.0,92,0.00,,,0.00,Weather View 32 v70,2013-02-09 17:36:00,
2013-02-09 08:41:00,33.4,31.1,29.60,NNW,338,2.0,3.0,91,0.00,,,0.00,Weather View 32 v70,2013-02-09 17:41:00,
2013-02-09 08:46:00,33.3,30.9,29.59,NNW,338,2.0,3.0,91,0.00,,,0.00,Weather View 32 v70,2013-02-09 17:46:00,
2013-02-09 08:51:00,33.3,30.9,29.59,NNW,338,2.0,3.0,91,0.00,,,0.00,Weather View 32 v70,2013-02-09 17:51:00,
2013-02-09 08:56:00,33.4,31.1,29.59,NNW,338,2.0,3.0,91,0.00,,,0.00,Weather View 32 v70,2013-02-09 17:56:00,
2013-02-09 09:01:00,33.6,31.3,29.59,NNW,338,3.0,3.0,91,0.00,,,0.00,Weather View 32 v70,2013-02-09 18:01:00,
2013-02-09 09:06:00,33.4,30.8,29.58,NNW,338,2.0,3.0,90,0.00,,,0.00,Weather View 32 v70,2013-02-09 18:06:00,
2013-02-09 09:11:00,33.4,30.8,29.58,NNW,338,2.0,3.0,90,0.00,,,0.00,Weather View 32 v70,2013-02-09 18:11:00,
2013-02-09 09:16:00,33.6,31.0,29.58,NNW,338,2.0,3.0,90,0.00,,,0.00,Weather View 32 v70,2013-02-09 18:16:00,
2013-02-09 09:21:00,33.8,31.2,29.58,NNW,338,2.0,3.0,90,0.00,,,0.00,Weather View 32 v70,2013-02-09 18:21:00,
2013-02-09 09:26:00,34.0,31.4,29.61,NNW,338,2.0,3.0,90,0.00,,,0.00,Weather View 32 v70,2013-02-09 18:26:00,
2013-02-09 09:31:00,34.3,31.4,29.61,NNW,338,2.0,3.0,89,0.00,,,0.00,Weather View 32 v70,2013-02-09 18:31:00,
2013-02-09 09:36:00,34.7,31.8,29.61,NNW,338,3.0,3.0,89,0.00,,,0.00,Weather View 32 v70,2013-02-09 18:36:00,
2013-02-09 09:41:00,34.9,31.7,29.61,NW,315,4.0,4.0,88,0.00,,,0.00,Weather View 32 v70,2013-02-09 18:41:00,
2013-02-09 09:46:00,35.1,31.6,29.61,West,270,5.0,5.0,87,0.00,,,0.00,Weather View 32 v70,2013-02-09 18:46:00,
2013-02-09 09:51:00,35.1,31.6,29.61,WSW,248,5.0,5.0,87,0.00,,,0.00,Weather View 32 v70,2013-02-09 18:51:00,
2013-02-09 09:56:00,35.6,31.8,29.61,West,270,5.0,5.0,86,0.00,,,0.00,Weather View 32 v70,2013-02-09 18:56:00,
2013-02-09 10:01:00,35.8,32.0,29.61,WSW,248,6.0,6.0,86,0.00,,,0.00,Weather View 32 v70,2013-02-09 19:01:00,
2013-02-09 10:06:00,35.6,31.8,29.60,West,270,6.0,6.0,86,0.00,,,0.00,Weather View 32 v70,2013-02-09 19:06:00,
2013-02-09 10:11:00,35.6,31.8,29.60,WSW,248,6.0,6.0,86,0.00,,,0.00,Weather View 32 v70,2013-02-09 19:11:00,
2013-02-09 10:16:00,36.1,32.4,29.60,NW,315,5.0,6.0,86,0.00,,,0.00,Weather View 32 v70,2013-02-09 19:16:00,
2013-02-09 10:21:00,36.3,32.2,29.60,NW,315,5.0,6.0,85,0.00,,,0.00,Weather View 32 v70,2013-02-09 19:21:00,
2013-02-09 10:26:00,36.9,32.8,29.59,NW,315,6.0,6.0,85,0.00,,,0.00,Weather View 32 v70,2013-02-09 19:26:00,
2013-02-09 10:31:00,37.2,32.8,29.59,NW,315,6.0,6.0,84,0.00,,,0.00,Weather View 32 v70,2013-02-09 19:31:00,
2013-02-09 10:36:00,36.9,32.5,29.59,NW,315,5.0,6.0,84,0.00,,,0.00,Weather View 32 v70,2013-02-09 19:36:00,
2013-02-09 10:42:00,37.0,32.9,29.59,NNW,338,5.0,6.0,85,0.00,,,0.00,Weather View 32 v70,2013-02-09 19:42:00,
2013-02-09 10:47:00,37.2,32.8,29.58,NW,315,5.0,6.0,84,0.00,,,0.00,Weather View 32 v70,2013-02-09 19:47:00,
2013-02-09 10:52:00,37.6,33.2,29.58,North,0,5.0,6.0,84,0.00,,,0.00,Weather View 32 v70,2013-02-09 19:52:00,
2013-02-09 10:57:00,37.6,33.2,29.58,NW,315,5.0,6.0,84,0.00,,,0.00,Weather View 32 v70,2013-02-09 19:57:00,
2013-02-09 11:01:00,37.6,33.2,29.58,North,0,5.0,6.0,84,0.00,,,0.00,Weather View 32 v70,2013-02-09 20:01:00,
2013-02-09 11:06:00,37.4,33.0,29.57,NNE,22,5.0,6.0,84,0.00,,,0.00,Weather View 32 v70,2013-02-09 20:06:00,
2013-02-09 11:11:00,37.2,32.8,29.57,NE,45,4.0,6.0,84,0.00,,,0.00,Weather View 32 v70,2013-02-09 20:11:00,
2013-02-09 11:17:00,37.2,32.8,29.57,South,180,4.0,6.0,84,0.00,,,0.00,Weather View 32 v70,2013-02-09 20:17:00,
2013-02-09 11:22:00,37.4,33.0,29.57,NNW,338,3.0,6.0,84,0.00,,,0.00,Weather View 32 v70,2013-02-09 20:22:00,
2013-02-09 11:27:00,37.6,33.5,29.57,NNW,338,3.0,6.0,85,0.00,,,0.00,Weather View 32 v70,2013-02-09 20:27:00,
2013-02-09 11:31:00,37.8,33.7,29.57,NE,45,2.0,6.0,85,0.00,,,0.00,Weather View 32 v70,2013-02-09 20:31:00,
2013-02-09 11:36:00,38.3,34.2,29.57,NE,45,2.0,6.0,85,0.00,,,0.00,Weather View 32 v70,2013-02-09 20:36:00,
2013-02-09 11:41:00,38.5,34.4,29.57,NNW,338,2.0,5.0,85,0.00,,,0.00,Weather View 32 v70,2013-02-09 20:41:00,
2013-02-09 11:47:00,38.7,34.5,29.57,NW,315,2.0,5.0,85,0.00,,,0.00,Weather View 32 v70,2013-02-09 20:47:00,
2013-02-09 11:52:00,39.4,34.9,29.57,NNW,338,3.0,5.0,84,0.00,,,0.00,Weather View 32 v70,2013-02-09 20:52:00,
2013-02-09 11:57:00,45.1,38.0,29.57,NNW,338,4.0,5.0,76,0.00,,,0.00,Weather View 32 v70,2013-02-09 20:57:00,
2013-02-09 12:02:00,43.7,35.6,29.57,NE,45,4.0,5.0,73,0.00,,,0.00,Weather View 32 v70,2013-02-09 21:02:00,
2013-02-09 12:07:00,42.3,34.6,29.54,NNW,338,4.0,5.0,74,0.00,,,0.00,Weather View 32 v70,2013-02-09 21:07:00,
2013-02-09 12:12:00,42.3,34.6,29.54,NNW,338,4.0,4.0,74,0.00,,,0.00,Weather View 32 v70,2013-02-09 21:12:00,
2013-02-09 12:17:00,42.1,35.1,29.54,NW,315,5.0,5.0,76,0.00,,,0.00,Weather View 32 v70,2013-02-09 21:17:00,
2013-02-09 12:22:00,50.7,40.1,29.54,WNW,292,5.0,5.0,67,0.00,,,0.00,Weather View 32 v70,2013-02-09 21:22:00,
2013-02-09 12:27:00,52.9,39.8,29.54,NW,315,6.0,6.0,61,0.00,,,0.00,Weather View 32 v70,2013-02-09 21:27:00,
2013-02-09 12:32:00,53.8,38.9,29.54,NW,315,6.0,6.0,57,0.00,,,0.00,Weather View 32 v70,2013-02-09 21:32:00,
2013-02-09 12:37:00,54.3,38.5,29.54,WNW,292,6.0,6.0,55,0.00,,,0.00,Weather View 32 v70,2013-02-09 21:37:00,
2013-02-09 12:42:00,55.4,39.0,29.54,NNW,338,6.0,6.0,54,0.00,,,0.00,Weather View 32 v70,2013-02-09 21:42:00,
2013-02-09 12:47:00,55.9,39.0,29.50,North,0,5.0,6.0,53,0.00,,,0.00,Weather View 32 v70,2013-02-09 21:47:00,
2013-02-09 12:52:00,55.8,38.4,29.50,SW,225,5.0,6.0,52,0.00,,,0.00,Weather View 32 v70,2013-02-09 21:52:00,
2013-02-09 12:57:00,55.0,37.7,29.50,NE,45,6.0,6.0,52,0.00,,,0.00,Weather View 32 v70,2013-02-09 21:57:00,
2013-02-09 13:01:00,55.9,38.0,29.50,NNE,22,6.0,7.0,51,0.00,,,0.00,Weather View 32 v70,2013-02-09 22:01:00,
2013-02-09 13:07:00,55.8,37.4,29.49,NNW,338,5.0,7.0,50,0.00,,,0.00,Weather View 32 v70,2013-02-09 22:07:00,
2013-02-09 13:12:00,54.3,36.0,29.49,NNE,22,6.0,7.0,50,0.00,,,0.00,Weather View 32 v70,2013-02-09 22:12:00,
2013-02-09 13:17:00,48.6,34.4,29.49,North,0,6.0,7.0,58,0.00,,,0.00,Weather View 32 v70,2013-02-09 22:17:00,
2013-02-09 13:22:00,45.1,33.7,29.49,NNW,338,5.0,7.0,64,0.00,,,0.00,Weather View 32 v70,2013-02-09 22:22:00,
2013-02-09 13:27:00,44.8,34.1,29.49,NNW,338,5.0,7.0,66,0.00,,,0.00,Weather View 32 v70,2013-02-09 22:27:00,
2013-02-09 13:32:00,44.1,33.8,29.49,SW,225,5.0,7.0,67,0.00,,,0.00,Weather View 32 v70,2013-02-09 22:32:00,
2013-02-09 13:37:00,43.5,33.6,29.49,NNW,338,5.0,7.0,68,0.00,,,0.00,Weather View 32 v70,2013-02-09 22:37:00,
2013-02-09 13:42:00,43.2,33.7,29.49,NW,315,6.0,7.0,69,0.00,,,0.00,Weather View 32 v70,2013-02-09 22:42:00,
2013-02-09 14:55:00,41.4,34.7,29.44,NNE,22,4.0,5.0,77,0.03,,,0.03,Weather View 32 v70,2013-02-09 23:55:00,
2013-02-09 15:06:00,41.2,34.5,29.44,NNW,338,4.0,5.0,77,0.03,,,0.03,Weather View 32 v70,2013-02-10 00:06:00,
2013-02-09 15:11:00,41.0,34.7,29.45,NNE,22,5.0,5.0,78,0.03,,,0.03,Weather View 32 v70,2013-02-10 00:11:00,
2013-02-09 15:18:00,41.2,34.8,29.45,WNW,292,5.0,5.0,78,0.03,,,0.03,Weather View 32 v70,2013-02-10 00:18:00,
2013-02-09 15:23:00,40.8,34.5,29.45,North,0,6.0,6.0,78,0.03,,,0.03,Weather View 32 v70,2013-02-10 00:23:00,
2013-02-09 15:28:00,40.5,34.1,29.44,West,270,5.0,6.0,78,0.03,,,0.03,Weather View 32 v70,2013-02-10 00:28:00,
2013-02-09 15:33:00,40.6,34.3,29.44,NNW,338,5.0,6.0,78,0.03,,,0.03,Weather View 32 v70,2013-02-10 00:33:00,
2013-02-09 15:38:00,40.1,33.8,29.44,NNW,338,5.0,6.0,78,0.00,,,0.06,Weather View 32 v70,2013-02-10 00:38:00,
2013-02-09 15:43:00,40.1,33.8,29.44,NNE,22,5.0,6.0,78,0.06,,,0.06,Weather View 32 v70,2013-02-10 00:43:00,
2013-02-09 15:48:00,39.7,33.8,29.44,NNW,338,4.0,6.0,79,0.06,,,0.06,Weather View 32 v70,2013-02-10 00:48:00,
2013-02-09 15:53:00,39.6,33.9,29.44,NNW,338,4.0,6.0,80,0.03,,,0.06,Weather View 32 v70,2013-02-10 00:53:00,
2013-02-09 15:58:00,39.7,34.1,29.44,NW,315,4.0,6.0,80,0.03,,,0.06,Weather View 32 v70,2013-02-10 00:58:00,
2013-02-09 16:03:00,39.7,34.1,29.44,WNW,292,4.0,6.0,80,0.03,,,0.06,Weather View 32 v70,2013-02-10 01:03:00,
2013-02-09 16:08:00,39.6,33.9,29.43,North,0,4.0,6.0,80,0.03,,,0.06,Weather View 32 v70,2013-02-10 01:08:00,
2013-02-09 16:13:00,39.2,33.5,29.43,SE,135,4.0,6.0,80,0.03,,,0.06,Weather View 32 v70,2013-02-10 01:13:00,
2013-02-09 16:18:00,39.2,33.5,29.43,NNE,22,4.0,6.0,80,0.03,,,0.06,Weather View 32 v70,2013-02-10 01:18:00,
2013-02-09 16:23:00,39.2,33.5,29.43,NE,45,4.0,6.0,80,0.03,,,0.06,Weather View 32 v70,2013-02-10 01:23:00,
2013-02-09 16:28:00,39.0,33.4,29.41,NNW,338,4.0,5.0,80,0.03,,,0.06,Weather View 32 v70,2013-02-10 01:28:00,
2013-02-09 16:33:00,38.7,33.0,29.41,North,0,4.0,5.0,80,0.03,,,0.06,Weather View 32 v70,2013-02-10 01:33:00,
2013-02-09 16:38:00,38.7,33.0,29.41,NNE,22,4.0,5.0,80,0.00,,,0.06,Weather View 32 v70,2013-02-10 01:38:00,
2013-02-09 16:43:00,38.5,32.8,29.41,NW,315,4.0,5.0,80,0.00,,,0.06,Weather View 32 v70,2013-02-10 01:43:00,
2013-02-09 16:48:00,38.3,33.0,29.40,NNW,338,3.0,4.0,81,0.00,,,0.06,Weather View 32 v70,2013-02-10 01:48:00,
2013-02-09 16:53:00,38.5,33.2,29.40,NE,45,3.0,4.0,81,0.00,,,0.06,Weather View 32 v70,2013-02-10 01:53:00,
2013-02-09 16:58:00,38.3,33.0,29.40,North,0,4.0,4.0,81,0.00,,,0.06,Weather View 32 v70,2013-02-10 01:58:00,
2013-02-09 17:03:00,38.1,33.1,29.40,NW,315,4.0,4.0,82,0.00,,,0.06,Weather View 32 v70,2013-02-10 02:03:00,
2013-02-09 17:08:00,38.3,33.3,29.40,NW,315,4.0,4.0,82,0.00,,,0.06,Weather View 32 v70,2013-02-10 02:08:00,
2013-02-09 17:13:00,37.9,32.9,29.40,NNW,338,4.0,4.0,82,0.00,,,0.06,Weather View 32 v70,2013-02-10 02:13:00,
2013-02-09 17:18:00,37.6,32.6,29.40,North,0,4.0,4.0,82,0.00,,,0.06,Weather View 32 v70,2013-02-10 02:18:00,
2013-02-09 17:23:00,37.8,33.1,29.40,NW,315,4.0,4.0,83,0.00,,,0.06,Weather View 32 v70,2013-02-10 02:23:00,
2013-02-09 17:28:00,37.4,32.7,29.38,North,0,4.0,4.0,83,0.00,,,0.06,Weather View 32 v70,2013-02-10 02:28:00,
2013-02-09 17:33:00,37.4,32.7,29.38,NNW,338,4.0,4.0,83,0.00,,,0.06,Weather View 32 v70,2013-02-10 02:33:00,
2013-02-09 17:38:00,37.4,33.0,29.38,NW,315,4.0,4.0,84,0.00,,,0.06,Weather View 32 v70,2013-02-10 02:38:00,
2013-02-09 17:43:00,37.2,32.8,29.38,NNE,22,3.0,4.0,84,0.00,,,0.06,Weather View 32 v70,2013-02-10 02:43:00,
2013-02-09 17:48:00,37.6,33.2,29.36,North,0,3.0,4.0,84,0.00,,,0.06,Weather View 32 v70,2013-02-10 02:48:00,
2013-02-09 17:53:00,37.6,33.2,29.36,North,0,3.0,4.0,84,0.00,,,0.06,Weather View 32 v70,2013-02-10 02:53:00,
2013-02-09 17:58:00,37.4,33.0,29.36,NNE,22,3.0,4.0,84,0.03,,,0.09,Weather View 32 v70,2013-02-10 02:58:00,
2013-02-09 18:03:00,37.6,33.2,29.36,NNW,338,3.0,4.0,84,0.03,,,0.09,Weather View 32 v70,2013-02-10 03:03:00,
2013-02-09 18:08:00,37.6,33.2,29.33,NNE,22,3.0,4.0,84,0.03,,,0.09,Weather View 32 v70,2013-02-10 03:08:00,
2013-02-09 18:13:00,37.6,32.9,29.33,NNW,338,3.0,4.0,83,0.03,,,0.09,Weather View 32 v70,2013-02-10 03:13:00,
2013-02-09 18:18:00,37.8,33.1,29.33,NNE,22,2.0,4.0,83,0.03,,,0.09,Weather View 32 v70,2013-02-10 03:18:00,
2013-02-09 18:23:00,37.8,33.1,29.33,NNE,22,2.0,4.0,83,0.03,,,0.09,Weather View 32 v70,2013-02-10 03:23:00,
2013-02-09 18:28:00,37.8,33.1,29.32,NNW,338,2.0,4.0,83,0.03,,,0.09,Weather View 32 v70,2013-02-10 03:28:00,
2013-02-09 18:33:00,37.8,33.1,29.32,NNW,338,2.0,4.0,83,0.03,,,0.09,Weather View 32 v70,2013-02-10 03:33:00,
2013-02-09 18:38:00,37.9,32.9,29.32,NW,315,3.0,4.0,82,0.03,,,0.09,Weather View 32 v70,2013-02-10 03:38:00,
2013-02-09 18:43:00,37.9,32.9,29.32,NW,315,3.0,4.0,82,0.03,,,0.09,Weather View 32 v70,2013-02-10 03:43:00,
2013-02-09 18:48:00,38.3,33.3,29.31,NNE,22,3.0,4.0,82,0.03,,,0.09,Weather View 32 v70,2013-02-10 03:48:00,
2013-02-09 18:53:00,38.3,33.3,29.31,NNE,22,4.0,4.0,82,0.03,,,0.09,Weather View 32 v70,2013-02-10 03:53:00,
2013-02-09 18:58:00,38.3,33.3,29.31,NNE,22,4.0,4.0,82,0.00,,,0.09,Weather View 32 v70,2013-02-10 03:58:00,
2013-02-09 19:03:00,38.3,33.3,29.31,NNE,22,4.0,4.0,82,0.00,,,0.09,Weather View 32 v70,2013-02-10 04:03:00,
2013-02-09 19:08:00,38.5,33.5,29.30,NW,315,4.0,5.0,82,0.00,,,0.09,Weather View 32 v70,2013-02-10 04:08:00,
2013-02-09 19:13:00,38.5,33.5,29.30,North,0,4.0,5.0,82,0.00,,,0.09,Weather View 32 v70,2013-02-10 04:13:00,
2013-02-09 19:18:00,38.5,33.8,29.30,NW,315,5.0,5.0,83,0.00,,,0.09,Weather View 32 v70,2013-02-10 04:18:00,
2013-02-09 19:23:00,38.5,33.8,29.30,NNW,338,5.0,5.0,83,0.00,,,0.09,Weather View 32 v70,2013-02-10 04:23:00,
2013-02-09 19:28:00,38.7,33.9,29.30,NW,315,5.0,5.0,83,0.00,,,0.09,Weather View 32 v70,2013-02-10 04:28:00,
2013-02-09 19:33:00,39.0,34.3,29.30,NNE,22,5.0,5.0,83,0.00,,,0.09,Weather View 32 v70,2013-02-10 04:33:00,
2013-02-09 19:38:00,39.0,34.3,29.30,North,0,5.0,5.0,83,0.00,,,0.09,Weather View 32 v70,2013-02-10 04:38:00,
2013-02-09 19:43:00,38.7,33.6,29.30,NW,315,4.0,5.0,82,0.00,,,0.09,Weather View 32 v70,2013-02-10 04:43:00,
2013-02-09 19:48:00,38.7,33.9,29.30,NW,315,4.0,5.0,83,0.00,,,0.09,Weather View 32 v70,2013-02-10 04:48:00,
2013-02-09 19:53:00,38.7,33.9,29.30,WNW,292,4.0,5.0,83,0.00,,,0.09,Weather View 32 v70,2013-02-10 04:53:00,
2013-02-09 19:58:00,38.5,34.1,29.30,NNE,22,4.0,5.0,84,0.00,,,0.09,Weather View 32 v70,2013-02-10 04:58:00,
2013-02-09 20:00:00,38.5,34.1,29.30,NE,45,4.0,5.0,84,0.00,,,0.09,Weather View 32 v70,2013-02-10 05:00:00,
2013-02-09 20:05:00,38.7,33.9,29.30,NNW,338,4.0,5.0,83,0.03,,,0.12,Weather View 32 v70,2013-02-10 05:05:00,
2013-02-09 20:10:00,38.8,34.1,29.30,NNE,22,4.0,5.0,83,0.03,,,0.12,Weather View 32 v70,2013-02-10 05:10:00,
2013-02-09 20:15:00,38.8,34.1,29.30,NNW,338,4.0,5.0,83,0.03,,,0.12,Weather View 32 v70,2013-02-10 05:15:00,
2013-02-09 20:20:00,38.7,33.9,29.30,West,270,4.0,5.0,83,0.03,,,0.12,Weather View 32 v70,2013-02-10 05:20:00,
2013-02-09 20:28:00,38.7,33.9,29.30,West,270,4.0,5.0,83,0.03,,,0.12,Weather View 32 v70,2013-02-10 05:28:00,
2013-02-09 20:33:00,38.3,33.6,29.30,NNE,22,3.0,5.0,83,0.03,,,0.12,Weather View 32 v70,2013-02-10 05:33:00,
2013-02-09 20:37:00,37.9,33.2,29.30,NNE,22,3.0,5.0,83,0.03,,,0.12,Weather View 32 v70,2013-02-10 05:37:00,
2013-02-09 20:42:00,37.8,33.4,29.30,NNE,22,3.0,4.0,84,0.03,,,0.12,Weather View 32 v70,2013-02-10 05:42:00,
2013-02-09 20:47:00,37.8,33.4,29.28,NNW,338,2.0,4.0,84,0.03,,,0.12,Weather View 32 v70,2013-02-10 05:47:00,
2013-02-09 20:52:00,37.9,33.5,29.28,NNW,338,3.0,4.0,84,0.03,,,0.12,Weather View 32 v70,2013-02-10 05:52:00,
2013-02-09 20:57:00,38.1,33.4,29.28,ENE,68,4.0,4.0,83,0.03,,,0.12,Weather View 32 v70,2013-02-10 05:57:00,
2013-02-09 21:02:00,38.3,33.6,29.28,NNE,22,4.0,4.0,83,0.00,,,0.12,Weather View 32 v70,2013-02-10 06:02:00,
2013-02-09 21:07:00,38.3,33.6,29.28,NNW,338,4.0,4.0,83,0.00,,,0.12,Weather View 32 v70,2013-02-10 06:07:00,
2013-02-09 21:12:00,37.9,33.2,29.28,West,270,4.0,4.0,83,0.00,,,0.12,Weather View 32 v70,2013-02-10 06:12:00,
2013-02-09 21:17:00,38.3,33.9,29.28,NNW,338,4.0,4.0,84,0.00,,,0.12,Weather View 32 v70,2013-02-10 06:17:00,
2013-02-09 21:22:00,37.9,33.5,29.28,SW,225,5.0,5.0,84,0.00,,,0.12,Weather View 32 v70,2013-02-10 06:22:00,
2013-02-09 21:28:00,38.1,33.7,29.27,NW,315,5.0,5.0,84,0.00,,,0.12,Weather View 32 v70,2013-02-10 06:28:00,
2013-02-09 21:33:00,37.9,33.5,29.27,NNE,22,5.0,5.0,84,0.00,,,0.12,Weather View 32 v70,2013-02-10 06:33:00,
2013-02-09 21:38:00,38.1,33.4,29.27,South,180,5.0,5.0,83,0.00,,,0.12,Weather View 32 v70,2013-02-10 06:38:00,
2013-02-09 21:43:00,38.1,33.4,29.27,NNW,338,5.0,5.0,83,0.00,,,0.12,Weather View 32 v70,2013-02-10 06:43:00,
2013-02-09 21:48:00,38.3,33.9,29.26,NW,315,5.0,5.0,84,0.00,,,0.12,Weather View 32 v70,2013-02-10 06:48:00,
2013-02-09 21:53:00,38.3,33.6,29.26,NNW,338,5.0,5.0,83,0.00,,,0.12,Weather View 32 v70,2013-02-10 06:53:00,
2013-02-09 21:58:00,37.9,33.2,29.26,NW,315,4.0,5.0,83,0.00,,,0.12,Weather View 32 v70,2013-02-10 06:58:00,
2013-02-09 22:03:00,38.1,33.4,29.26,WNW,292,4.0,5.0,83,0.00,,,0.12,Weather View 32 v70,2013-02-10 07:03:00,
2013-02-09 22:08:00,37.9,33.2,29.26,NW,315,4.0,5.0,83,0.00,,,0.12,Weather View 32 v70,2013-02-10 07:08:00,
2013-02-09 22:13:00,37.9,33.2,29.26,North,0,3.0,5.0,83,0.00,,,0.12,Weather View 32 v70,2013-02-10 07:13:00,
2013-02-09 22:18:00,37.9,33.2,29.26,NW,315,4.0,5.0,83,0.00,,,0.12,Weather View 32 v70,2013-02-10 07:18:00,
2013-02-09 22:23:00,37.9,33.2,29.26,NW,315,4.0,5.0,83,0.00,,,0.12,Weather View 32 v70,2013-02-10 07:23:00,
2013-02-09 22:28:00,37.9,33.2,29.25,WNW,292,4.0,5.0,83,0.00,,,0.12,Weather View 32 v70,2013-02-10 07:28:00,
2013-02-09 22:33:00,37.9,33.2,29.25,NW,315,4.0,5.0,83,0.00,,,0.12,Weather View 32 v70,2013-02-10 07:33:00,
2013-02-09 22:38:00,37.9,33.2,29.25,West,270,3.0,5.0,83,0.00,,,0.12,Weather View 32 v70,2013-02-10 07:38:00,
2013-02-09 22:43:00,37.8,33.1,29.25,West,270,3.0,5.0,83,0.00,,,0.12,Weather View 32 v70,2013-02-10 07:43:00,
2013-02-09 22:48:00,37.8,33.1,29.24,West,270,3.0,5.0,83,0.00,,,0.12,Weather View 32 v70,2013-02-10 07:48:00,
2013-02-09 22:53:00,37.8,33.1,29.24,North,0,3.0,5.0,83,0.00,,,0.12,Weather View 32 v70,2013-02-10 07:53:00,
2013-02-09 22:58:00,37.8,33.1,29.24,NNE,22,4.0,5.0,83,0.00,,,0.12,Weather View 32 v70,2013-02-10 07:58:00,
2013-02-09 23:03:00,37.8,33.1,29.24,NNW,338,4.0,4.0,83,0.00,,,0.12,Weather View 32 v70,2013-02-10 08:03:00,
2013-02-09 23:08:00,37.8,33.1,29.23,WSW,248,4.0,4.0,83,0.00,,,0.12,Weather View 32 v70,2013-02-10 08:08:00,
2013-02-09 23:13:00,37.9,33.2,29.23,NNW,338,4.0,4.0,83,0.00,,,0.12,Weather View 32 v70,2013-02-10 08:13:00,
2013-02-09 23:18:00,37.9,33.2,29.23,NNW,338,4.0,4.0,83,0.00,,,0.12,Weather View 32 v70,2013-02-10 08:18:00,
2013-02-09 23:23:00,37.8,33.1,29.23,NNW,338,3.0,4.0,83,0.00,,,0.12,Weather View 32 v70,2013-02-10 08:23:00,
2013-02-09 23:28:00,37.8,33.1,29.23,NW,315,3.0,4.0,83,0.00,,,0.12,Weather View 32 v70,2013-02-10 08:28:00,
2013-02-09 23:33:00,37.8,33.1,29.23,NW,315,3.0,4.0,83,0.00,,,0.12,Weather View 32 v70,2013-02-10 08:33:00,
2013-02-09 23:38:00,37.6,32.9,29.23,North,0,3.0,4.0,83,0.00,,,0.12,Weather View 32 v70,2013-02-10 08:38:00,
2013-02-09 23:43:00,37.6,32.9,29.23,NE,45,3.0,4.0,83,0.00,,,0.12,Weather View 32 v70,2013-02-10 08:43:00,
2013-02-09 23:48:00,37.8,33.1,29.22,North,0,3.0,4.0,83,0.00,,,0.12,Weather View 32 v70,2013-02-10 08:48:00,
2013-02-09 23:53:00,37.8,33.1,29.22,North,0,3.0,4.0,83,0.00,,,0.12,Weather View 32 v70,2013-02-10 08:53:00,
2013-02-09 23:58:00,37.8,33.1,29.22,NNW,338,3.0,4.0,83,0.00,,,0.12,Weather View 32 v70,2013-02-10 08:58:00,